Zurück zum Katalog

STARLINK-34161

AktivKommunikationVLEO
NORAD 64017·PAYLOAD·🇺🇸 United States

Gestartet May 14, 2025 von Cape Canaveral Space Force Station

Loading…

Nächste Überflüge (nächste 24 Stunden)

TLE

AktuellSource: CelesTrak SupGP

Epoche: Sep 15, 2026, 03:10 UTC

1 64017C 25101Z   26258.13243056  .00024888  00000+0  90124-3 0  2580
2 64017  43.0038   7.9464 0001616 269.4439 306.0288 15.27573526    10

Verfolge STARLINK-34161 in Echtzeit mit AllMySat

Download on the App Store